Location: Brantley
(31.5822°N, 86.2569°W)
Time: 21:55:32
(UTC+00:00)

Vanguard 1 Rocket - All Passes

Search period start: 17 February 2026 00:00
Search period end: 27 February 2026 00:00
Orbit: 652 x 4215 km, 34.3° (Epoch: 16 February)

Date Brightness Start Highest point End Pass type
(mag) Time Alt. Az. Time Alt. Az. Time Alt. Az.
17 Feb - 02:07:48 10° WNW 02:29:24 48° SW 02:52:12 10° SSE visible
17 Feb - 04:47:53 10° W 04:59:07 15° SW 05:09:38 10° SSW visible
17 Feb - 17:35:57 10° SW 17:42:48 52° SE 17:55:54 10° ENE daylight
17 Feb - 19:59:37 10° W 20:09:52 84° N 20:30:39 10° E daylight
17 Feb - 22:25:22 10° WNW 22:40:47 88° NNE 23:06:52 10° ESE daylight
18 Feb - 00:52:55 10° WNW 01:13:17 62° SSW 01:38:35 10° SE visible
18 Feb - 03:25:46 10° W 03:44:16 27° SW 04:02:14 10° S visible
18 Feb - 16:25:38 10° SSW 16:30:55 28° SE 16:39:18 10° E daylight
18 Feb - 18:47:44 10° WSW 18:55:57 85° SSE 19:12:56 10° ENE daylight
18 Feb - 21:12:40 10° W 21:25:10 82° N 21:48:58 10° E daylight
18 Feb - 23:39:04 10° WNW 23:56:59 76° SSW 00:23:24 10° SE visible
19 Feb - 02:08:32 10° W 02:28:52 40° SW 02:50:58 10° SSE visible
19 Feb - 15:18:35 10° SE 15:19:31 10° SE 15:20:30 10° ESE daylight
19 Feb - 17:36:20 10° SW 17:43:00 63° SSE 17:56:04 10° ENE daylight
19 Feb - 20:00:21 10° W 20:10:21 81° N 20:30:44 10° E daylight
19 Feb - 22:25:57 10° WNW 22:40:59 88° SSW 23:06:46 10° ESE daylight
20 Feb - 00:53:27 10° WNW 01:12:57 54° SW 01:37:44 10° SE visible
20 Feb - 03:27:55 10° W 03:43:46 21° SW 03:59:37 10° S visible
20 Feb - 16:25:36 10° SSW 16:30:57 36° SE 16:39:54 10° ENE daylight
20 Feb - 18:48:25 10° WSW 18:56:26 87° NNW 19:12:59 10° ENE daylight
20 Feb - 21:13:20 10° W 21:25:34 84° N 21:49:02 10° E daylight
20 Feb - 23:39:36 10° WNW 23:56:53 68° SSW 00:22:52 10° SE visible
21 Feb - 02:09:37 10° W 02:28:23 34° SW 02:49:20 10° SSE visible
21 Feb - 15:16:17 10° SSE 15:19:28 15° SE 15:23:29 10° E daylight
21 Feb - 17:36:51 10° WSW 17:43:22 74° SSE 17:56:13 10° ENE daylight
21 Feb - 20:01:06 10° W 20:10:53 79° N 20:30:51 10° E daylight
21 Feb - 22:26:32 10° WNW 22:41:07 81° SSW 23:06:31 10° ESE daylight
22 Feb - 00:54:08 10° WNW 01:12:38 47° SW 01:36:34 10° SSE visible
22 Feb - 03:31:29 10° WSW 03:43:27 16° SW 03:55:37 10° SSW visible
22 Feb - 16:25:48 10° SW 16:31:07 46° SE 16:40:20 10° ENE daylight
22 Feb - 18:49:09 10° W 18:56:59 82° N 19:13:06 10° E daylight
22 Feb - 21:14:00 10° WNW 21:25:55 88° NNE 21:49:00 10° ESE daylight
22 Feb - 23:40:11 10° WNW 23:56:47 60° SSW 00:22:04 10° SE visible
23 Feb - 02:11:09 10° W 02:28:02 27° SW 02:47:08 10° S visible
23 Feb - 15:15:38 10° S 15:19:30 22° SE 15:24:49 10° E daylight
23 Feb - 17:37:29 10° WSW 17:43:51 85° SSE 17:56:22 10° ENE daylight
23 Feb - 20:01:50 10° W 20:11:24 80° N 20:30:58 10° E daylight
23 Feb - 22:27:07 10° WNW 22:41:14 74° SSW 23:06:03 10° SE daylight
24 Feb - 00:55:04 10° W 01:12:23 39° SW 01:35:03 10° SSE visible
24 Feb - 03:40:19 10° SW 03:43:23 10° SW 03:46:30 10° SW visible
24 Feb - 16:26:11 10° SW 16:31:27 58° SSE 16:40:41 10° ENE daylight
24 Feb - 18:49:55 10° W 18:57:34 78° N 19:13:16 10° E daylight
24 Feb - 21:14:39 10° WNW 21:26:14 87° SSW 21:48:52 10° ESE daylight
24 Feb - 23:40:52 10° WNW 23:56:44 52° SSW 00:20:59 10° SE visible
25 Feb - 02:13:27 10° W 02:27:51 21° SW 02:44:08 10° S visible
25 Feb - 15:15:29 10° SSW 15:19:41 29° SE 15:25:42 10° E daylight
25 Feb - 17:38:13 10° WSW 17:44:25 85° NNW 17:56:33 10° ENE daylight
25 Feb - 20:02:34 10° WNW 20:11:54 83° N 20:31:04 10° E daylight
25 Feb - 22:27:45 10° WNW 22:41:21 66° SSW 23:05:22 10° SE daylight
26 Feb - 00:56:18 10° W 01:12:15 32° SW 01:33:04 10° SSE visible
26 Feb - 14:06:33 10° SSE 14:08:10 12° SE 14:09:54 10° ESE daylight
26 Feb - 16:26:44 10° WSW 16:31:55 72° SSE 16:41:01 10° ENE daylight
26 Feb - 18:50:42 10° W 18:58:11 77° N 19:13:29 10° E daylight
26 Feb - 21:15:18 10° WNW 21:26:33 79° SSW 21:48:34 10° ESE daylight
